{"data":{"norad_id":62861,"intl_designator":"2025-022H","name":"STARLINK-32859","alt_names":[],"object_type":"PAYLOAD","status":"ACTIVE","operator":null,"country":"US","launch_date":"2025-02-01","launch_site_code":"AFWTR","launch_vehicle":null,"mission":null,"orbit_class":"UNKNOWN","rcs_meters":null,"size_class":null,"mass_kg":null,"dimensions":null,"purposes":["comms"],"wikipedia_slug":null,"has_3d_model":false,"image_url":null,"decayed_at":null,"tle_current":{"epoch":"2026-09-21T17:06:31.712256Z","epoch_age_seconds":63451,"freshness":"FRESH","line1":"1 62861U 25022H   26264.71286704  .00011190  00000+0  34177-3 0  9995","line2":"2 62861  53.1610 296.1653 0000480  69.0151 291.0903 15.34403298 91954","mean_motion":15.34403298,"eccentricity":4.8e-5,"inclination_deg":53.161,"raan_deg":296.1653,"arg_perigee_deg":69.0151,"mean_anomaly_deg":291.0903,"bstar":0.00034177,"rev_number":9195,"period_min":93.847556367804,"perigee_km":462.36507801262,"apogee_km":463.02179773466,"semimajor_km":6840.8304378736,"source":"CELESTRAK","updated_at":"2026-09-22T09:00:49.676948Z"}}}